Morristown, NJ

12:32 PM EDT on June 19, 2018 (GMT -0400)
Morristown Municipal

Weather History for KMMU - October, 2017

Change the Weather History Date:

Tuesday, October 10, 2017

  Actual Average Record
Temperature  
Mean Temperature 68 °F -  
Max Temperature 78 °F 68 °F 90 °F (1939)
Min Temperature 55 °F 43 °F 30 °F (1956)
Cooling Degree Days 2    
Growing Degree Days 18 (Base 50)    
Moisture  
Dew Point 62 °F    
Average Humidity 82    
Maximum Humidity 100    
Minimum Humidity 54    
Precipitation  
Precipitation 0.00 in - - ()
Sea Level Pressure  
Sea Level Pressure 30.04 in    
Wind  
Wind Speed 3 mph (NW)    
Max Wind Speed 9 mph    
Max Gust Speed 18 mph    
Visibility 10 miles    
Events      
Averages and records for this station are not official NWS values.
T = Trace of Precipitation, MM = Missing Value Source: NWS Daily Summary

Daily Weather History Graph

Daily Weather History Graph

Search for Another Location

Airport or City:

Astronomy

Oct. 10, 2017 Rise Set
Actual Time 7:03 AM EDT 6:24 PM EDT
Civil Twilight 6:36 AM EDT 6:52 PM EDT
Nautical Twilight 6:04 AM EDT 7:23 PM EDT
Astronomical Twilight 5:32 AM EDT 7:55 PM EDT
Moon 10:25 PM EDT (10/10) 12:17 PM EDT (10/10)
Length of Visible Light 12h 15m
Length of Day
11h 20m
Waning Gibbous, 71% of the Moon is Illuminated
Oct 10
Waning Gibbous
Oct 12
Last Quarter
Oct 19
New
Oct 27
First Quarter
Nov 4
Full

Hourly Weather History & Observations

Time (EDT) Temp. Dew Point Humidity Pressure Visibility Wind Dir Wind Speed Gust Speed Precip Events Conditions
12:15 AM 73.4 °F 68.0 °F 83% 29.95 in 10.0 mi NNW 5.8 mph - N/A   Overcast
12:35 AM 73.4 °F 68.0 °F 83% 29.96 in 10.0 mi Calm Calm - N/A   Overcast
12:55 AM 71.6 °F 68.0 °F 88% 29.96 in 10.0 mi NW 5.8 mph - N/A   Mostly Cloudy
1:15 AM 71.6 °F 64.4 °F 78% 29.97 in 10.0 mi Calm Calm - N/A   Scattered Clouds
1:35 AM 69.8 °F 64.4 °F 83% 29.98 in 10.0 mi NNW 5.8 mph - N/A   Scattered Clouds
1:55 AM 69.8 °F 64.4 °F 83% 29.99 in 10.0 mi NW 5.8 mph - N/A   Clear
2:15 AM 68.0 °F 64.4 °F 88% 29.99 in 10.0 mi NW 4.6 mph - N/A   Clear
2:35 AM 69.8 °F 64.4 °F 83% 29.99 in 10.0 mi Calm Calm - N/A   Clear
2:55 AM 68.0 °F 64.4 °F 88% 29.99 in 10.0 mi Calm Calm - N/A   Clear
3:15 AM 68.0 °F 62.6 °F 83% 30.00 in 10.0 mi North 4.6 mph - N/A   Clear
3:35 AM 68.0 °F 62.6 °F 83% 29.99 in 10.0 mi NW 3.5 mph - N/A   Clear
3:55 AM 68.0 °F 62.6 °F 83% 30.00 in 10.0 mi Calm Calm - N/A   Clear
4:15 AM 68.0 °F 60.8 °F 78% 30.00 in 10.0 mi Calm Calm - N/A   Clear
4:35 AM 66.2 °F 60.8 °F 83% 30.01 in 10.0 mi Calm Calm - N/A   Clear
4:55 AM 66.2 °F 60.8 °F 83% 30.01 in 10.0 mi Calm Calm - N/A   Clear
5:15 AM 62.6 °F 60.8 °F 94% 30.02 in 10.0 mi Calm Calm - N/A   Clear
5:35 AM 64.4 °F 60.8 °F 88% 30.01 in 10.0 mi NNW 3.5 mph - N/A   Clear
5:55 AM 64.4 °F 60.8 °F 88% 30.02 in 10.0 mi Calm Calm - N/A   Clear
6:10 AM 62.6 °F 60.8 °F 94% 30.03 in 10.0 mi Calm Calm - N/A   Clear
6:35 AM 60.8 °F 60.8 °F 100% 30.03 in 10.0 mi Calm Calm - N/A   Clear
6:45 AM 62.6 °F 60.8 °F 94% 30.03 in 10.0 mi Calm Calm - N/A   Partly Cloudy
6:46 AM 62.6 °F 60.8 °F 94% 30.03 in 10.0 mi Calm Calm - N/A   Partly Cloudy
7:45 AM 62.6 °F 60.8 °F 94% 30.07 in 10.0 mi North - - N/A   Partly Cloudy
8:45 AM 69.8 °F 62.6 °F 78% 30.09 in 10.0 mi WNW 5.8 mph - N/A   Partly Cloudy
9:45 AM 71.6 °F 60.8 °F 69% 30.10 in 10.0 mi NW 4.6 mph - N/A   Scattered Clouds
10:45 AM 71.6 °F 60.8 °F 69% 30.09 in 15.0 mi NW 8.1 mph - N/A   Scattered Clouds
11:45 AM 75.2 °F 60.8 °F 61% 30.09 in 15.0 mi NNW 9.2 mph 18.4 mph N/A   Scattered Clouds
12:45 PM 75.2 °F 60.8 °F 61% 30.08 in 15.0 mi NW 9.2 mph - N/A   Scattered Clouds
1:45 PM 77.0 °F 62.6 °F 61% 30.07 in 10.0 mi WNW 8.1 mph - N/A   Scattered Clouds
2:45 PM 78.8 °F 60.8 °F 54% 30.05 in 10.0 mi NNW 5.8 mph - N/A   Scattered Clouds
3:45 PM 78.8 °F 60.8 °F 54% 30.06 in 10.0 mi NW 8.1 mph - N/A   Scattered Clouds
4:45 PM 78.8 °F 60.8 °F 54% 30.05 in 10.0 mi NNW 5.8 mph - N/A   Scattered Clouds
4:50 PM 78.8 °F 60.8 °F 54% 30.05 in 10.0 mi NNW 5.8 mph - N/A   Scattered Clouds
5:45 PM 77.0 °F 62.6 °F 61% 30.06 in 10.0 mi WNW 4.6 mph - N/A   Scattered Clouds
6:50 PM 68.0 °F 62.6 °F 83% 30.08 in 10.0 mi Calm Calm - N/A   Partly Cloudy
7:50 PM 66.2 °F 62.6 °F 88% 30.10 in 10.0 mi Calm Calm - N/A   Partly Cloudy
8:50 PM 62.6 °F 60.8 °F 94% 30.11 in 10.0 mi Calm Calm - N/A   Partly Cloudy
9:45 PM 60.8 °F 60.8 °F 100% 30.12 in 10.0 mi Calm Calm - N/A   Partly Cloudy
10:35 PM 59.0 °F 59.0 °F 100% 30.12 in 10.0 mi Calm Calm - N/A   Scattered Clouds
10:55 PM 57.2 °F 57.2 °F 100% 30.12 in 7.0 mi Calm Calm - N/A   Clear
11:15 PM 57.2 °F 57.2 °F 100% 30.12 in 1.2 mi Calm Calm - N/A   Mist
11:35 PM 57.2 °F 57.2 °F 100% 30.12 in 1.0 mi Calm Calm - N/A   Scattered Clouds
11:55 PM 55.4 °F 55.4 °F 100% 30.12 in 5.0 mi Calm Calm - N/A   Clear